Theta_e
349 347 346 344 342 340 339 339 339 339 339 338 338 337 336 335 334 328 323 319 313 313 314 313 315 315 314 315 317 315 315 320 326 331 335 336 337 337 337 338 338 338 338 338 337 337 336 336 336 336 336 336 336 335 335 334 334 333 332 329 317 322 335 334 335 336 336 337 336 336 335 336 335 335 336 336 335 335 336 336 337 337 337 337 336
349 347 346 344 341 339 337 337 338 338 338 338 338 337 336 335 334 328 322 318 313 313 313 314 315 314 315 316 316 315 316 322 329 333 336 337 337 337 337 337 338 338 337 338 337 337 337 336 336 336 336 335 335 335 334 333 333 333 328 319 311 320 331 331 333 334 335 336 335 335 334 334 334 334 335 335 335 335 335 335 336 336 336 336 336
349 347 345 342 339 337 336 336 337 338 338 338 338 337 336 335 334 329 322 317 313 313 313 314 315 314 315 316 316 315 318 325 330 334 337 338 338 337 337 338 338 337 337 337 337 336 336 335 335 335 336 335 335 334 333 334 332 325 319 316 316 322 329 332 333 333 333 334 335 334 333 334 333 333 333 334 334 334 334 334 335 334 335 335 335
349 347 343 340 338 335 335 335 336 337 337 338 337 337 336 335 335 329 322 317 312 313 313 314 315 315 315 317 316 316 319 326 332 336 337 338 338 338 338 338 337 337 337 336 336 334 331 329 327 325 325 327 329 332 333 330 322 316 321 326 327 328 330 332 333 332 331 332 333 332 330 331 332 332 331 331 333 334 334 334 334 333 334 334 334
349 346 342 338 335 334 334 335 336 337 337 338 337 337 336 335 335 328 322 316 312 313 313 314 316 315 316 317 317 318 324 330 335 337 338 338 339 338 339 338 337 336 335 334 331 326 321 317 313 311 311 312 315 323 325 319 316 321 328 330 331 332 332 332 334 333 331 331 331 331 328 327 330 330 329 329 331 334 334 334 333 333 333 333 333
348 344 339 335 333 332 333 334 336 337 337 337 337 336 336 335 334 329 321 315 312 313 313 315 316 315 316 318 320 326 332 334 336 338 338 339 339 339 338 338 337 335 332 330 324 315 311 309 309 308 308 308 309 314 314 315 323 329 330 330 332 332 333 334 335 334 333 332 330 331 328 325 328 329 330 329 330 332 334 333 332 332 332 332 333
347 343 337 333 331 330 332 333 335 336 336 336 336 336 336 335 333 328 320 314 312 313 314 315 317 315 316 318 322 331 335 336 337 338 339 339 339 338 338 337 335 333 330 325 315 309 309 308 308 308 308 308 308 309 310 320 330 331 331 331 332 332 333 334 334 335 335 334 331 332 327 322 324 326 331 331 329 332 333 333 331 330 331 332 332
345 341 334 331 330 330 331 332 334 335 335 336 336 336 336 334 332 327 319 313 312 313 314 316 317 316 317 318 322 330 335 336 337 338 338 338 338 338 337 336 333 331 326 317 309 309 309 308 309 309 309 308 309 307 310 325 332 330 331 331 332 332 333 334 333 334 334 334 332 330 322 319 324 328 331 330 329 332 333 332 330 330 330 331 331
342 338 332 331 330 330 330 331 332 333 335 335 336 336 335 333 330 325 316 311 311 313 314 316 317 317 317 318 321 328 335 336 337 338 338 338 338 337 336 333 330 326 318 310 309 309 309 309 309 309 309 309 308 307 314 327 331 330 332 332 333 333 333 333 332 331 331 331 330 326 317 317 327 331 330 330 330 331 332 331 329 330 331 330 330
338 334 332 331 331 330 329 330 330 332 334 334 335 334 332 330 327 322 314 311 311 312 314 316 317 318 318 318 321 327 334 335 337 338 338 338 337 336 333 328 323 316 311 309 310 309 309 309 310 309 309 309 308 310 318 327 329 330 331 330 331 330 332 333 332 331 331 330 328 325 318 316 324 329 330 329 328 329 330 330 329 329 330 330 329
337 335 332 332 331 330 329 328 328 330 330 330 330 329 327 326 324 319 312 310 311 312 314 316 317 318 318 319 321 326 332 335 336 338 338 337 335 333 328 323 317 312 310 310 310 309 310 310 310 310 309 309 310 315 323 328 329 330 330 330 331 330 331 330 331 330 329 330 326 322 317 315 318 323 327 323 321 327 329 329 329 327 328 328 328
341 337 332 333 332 330 329 328 328 327 327 325 324 324 323 322 321 316 311 310 311 312 314 315 316 318 319 320 322 326 331 334 337 338 338 336 333 330 326 323 319 315 312 310 310 310 310 310 310 310 310 310 313 320 326 330 331 331 330 330 331 331 331 330 330 329 327 325 321 317 314 313 316 320 325 322 318 324 326 325 325 322 324 325 324
343 338 333 333 332 331 331 329 328 326 324 322 320 321 320 320 319 313 310 310 311 312 313 315 316 318 319 320 323 326 331 335 337 338 337 334 330 329 326 324 322 317 313 310 310 309 310 310 310 310 310 312 317 323 328 331 332 332 332 332 331 330 330 331 331 329 325 320 316 313 312 313 317 321 326 325 318 318 320 320 319 318 319 319 319
344 339 333 333 333 333 332 331 328 325 322 320 320 319 319 319 316 311 309 310 311 312 313 315 316 318 319 320 323 326 330 334 336 337 336 332 330 330 327 324 322 318 313 311 310 309 310 310 310 311 311 313 320 325 329 332 332 332 331 331 331 331 331 331 330 327 322 318 314 312 311 313 315 319 324 325 320 317 317 315 314 315 314 314 316
345 337 332 334 334 333 333 331 328 323 321 319 319 318 318 317 313 310 310 310 311 311 312 314 316 317 319 320 322 325 329 333 334 335 333 330 331 329 326 324 322 318 314 311 310 309 310 310 310 311 311 314 320 325 329 330 331 330 330 330 331 332 330 329 328 323 318 315 311 311 310 311 311 313 318 321 320 319 316 313 311 312 312 313 314
345 337 333 334 333 334 333 331 326 322 320 319 318 317 317 316 312 309 310 310 310 311 311 313 316 317 318 319 321 324 327 330 330 330 330 330 330 328 325 323 321 318 315 311 309 309 310 310 310 310 311 316 321 324 328 331 331 330 330 330 329 328 327 326 325 319 316 312 310 311 310 311 312 315 318 320 319 317 315 313 310 310 310 311 312
346 337 333 334 333 334 334 331 326 322 320 318 317 316 315 315 313 310 310 310 310 310 311 312 315 315 316 317 319 322 325 328 327 326 327 327 328 328 325 322 320 319 315 312 310 309 309 309 310 310 311 315 320 324 329 331 331 330 330 329 327 328 329 329 325 319 316 313 311 311 312 312 313 317 320 320 318 314 313 312 309 310 310 310 311
346 337 333 334 334 334 334 332 328 324 321 319 317 315 314 314 313 313 311 310 310 310 310 311 313 314 315 316 317 319 321 322 323 323 324 326 328 327 324 321 320 319 316 314 311 309 310 309 310 310 311 315 319 324 329 330 331 332 333 332 331 331 332 329 325 321 318 315 312 312 312 312 312 314 315 316 316 315 313 311 310 310 309 310 311
345 337 333 334 334 334 334 333 329 327 325 322 319 316 314 314 313 314 312 311 310 310 310 311 312 313 314 315 315 316 318 318 319 320 322 325 327 326 323 320 320 320 316 315 313 310 310 311 311 312 313 315 319 324 328 331 332 332 332 332 332 332 331 330 328 323 318 317 315 314 314 314 315 315 314 312 314 316 314 312 311 310 309 309 309
343 336 334 334 334 335 334 334 332 330 329 325 321 317 315 313 313 314 314 312 311 310 310 311 311 312 312 313 314 314 315 316 316 318 321 323 325 325 323 321 320 320 317 315 315 311 311 312 313 314 314 316 319 322 326 330 332 332 333 333 333 333 330 329 328 322 318 318 318 317 317 317 318 318 314 311 311 312 312 312 312 310 310 310 309
343 336 334 335 334 335 335 335 334 333 331 326 321 319 317 314 313 313 313 313 313 312 311 311 311 311 312 313 313 313 314 316 315 316 319 322 324 325 323 322 321 321 318 316 316 314 312 313 314 315 315 315 317 320 324 329 332 333 333 332 332 331 329 329 329 324 320 320 320 319 319 319 319 318 316 313 311 310 310 310 310 310 310 310 310
345 338 335 335 335 335 335 335 335 335 332 327 322 320 319 316 313 313 313 313 314 313 312 312 311 311 312 313 313 312 313 315 315 315 316 319 322 324 323 321 321 322 320 317 318 317 314 314 315 316 316 316 317 319 323 327 330 332 333 333 332 329 327 329 329 325 322 321 322 322 321 321 320 320 319 317 314 311 311 310 309 309 309 310 310
346 342 338 337 336 335 335 336 336 336 333 328 324 323 321 317 314 314 314 314 314 314 313 313 313 313 313 313 313 312 313 314 313 313 314 316 320 322 322 321 322 322 322 320 319 318 317 317 317 317 318 319 319 320 322 325 327 329 332 334 333 329 327 328 328 327 325 323 322 323 322 322 322 321 320 320 318 317 315 313 311 309 308 309 309
346 344 342 341 340 338 337 337 337 337 335 332 328 327 322 317 315 314 315 316 315 316 315 315 314 314 314 313 313 313 313 313 313 313 313 314 318 321 321 321 321 322 323 322 321 321 320 320 320 320 321 322 322 321 322 324 325 327 332 334 333 330 329 329 328 328 327 325 323 323 322 322 322 322 322 321 321 321 319 317 314 312 310 309 308
345 345 344 344 343 342 342 340 340 339 338 336 333 331 324 318 317 317 319 321 322 322 321 321 320 320 318 315 314 314 313 313 314 315 313 314 316 319 320 321 321 322 323 324 323 322 322 322 322 322 323 323 323 324 323 325 327 328 332 336 335 332 332 331 330 329 328 326 323 323 323 322 322 322 322 322 322 322 322 321 319 316 314 312 309
345 345 345 344 344 344 344 342 342 340 339 338 338 335 325 320 321 323 325 329 331 331 329 331 331 331 329 323 318 317 318 319 320 321 318 317 318 319 319 320 320 321 322 324 324 323 324 324 323 323 323 323 326 328 328 329 331 330 330 335 335 333 333 332 330 329 328 326 324 323 323 322 322 322 322 322 322 322 322 322 321 319 316 314 311
345 345 345 345 344 344 344 343 342 341 340 339 340 337 328 326 328 329 332 334 336 335 334 335 334 334 334 331 325 323 326 327 327 328 325 324 324 325 323 320 319 321 322 323 324 324 325 325 324 324 323 326 332 334 333 334 334 332 330 333 335 334 333 333 331 329 329 327 324 323 323 322 322 322 322 322 322 322 323 323 322 320 317 315 313
346 345 345 345 345 344 344 344 342 341 340 340 340 338 334 334 333 333 336 337 337 336 336 336 333 332 334 335 332 330 332 332 330 330 329 329 329 329 329 325 320 320 322 324 324 322 324 325 325 325 324 330 336 336 336 336 334 334 332 333 335 334 334 333 331 330 330 328 325 324 323 322 322 323 323 323 323 323 323 322 323 322 319 317 314
345 345 344 345 345 344 344 344 343 341 341 340 339 339 338 337 336 336 337 337 336 336 336 336 334 333 333 335 335 334 334 334 333 332 332 331 330 329 331 330 326 321 319 322 324 321 319 321 323 324 325 330 336 336 337 336 334 334 333 333 334 334 334 333 331 332 331 329 327 325 324 323 323 323 323 323 323 323 323 322 323 322 321 319 315
345 345 345 345 345 344 344 343 343 342 341 340 339 339 339 337 337 338 338 336 336 335 336 336 334 334 334 335 336 335 335 334 334 334 333 332 331 331 331 331 329 326 320 319 324 325 321 317 318 321 323 327 333 335 336 336 333 333 333 333 333 332 334 333 332 332 330 329 328 327 325 324 324 324 324 323 323 323 323 323 323 323 322 320 316
344 344 344 345 344 343 343 343 343 342 341 340 339 339 339 337 337 337 338 337 335 335 335 335 335 334 334 334 336 336 335 335 335 335 335 333 332 332 333 332 330 329 325 320 325 330 327 321 316 316 320 323 329 335 336 335 333 332 333 333 332 332 333 334 332 331 330 329 329 328 327 326 325 324 324 323 323 322 322 322 323 323 322 322 318
344 344 343 344 344 343 343 343 342 342 341 340 339 339 338 337 337 337 338 337 336 335 334 335 334 333 333 333 334 335 335 335 336 336 335 334 333 333 334 333 331 329 328 324 325 329 328 326 321 314 318 323 328 335 336 334 333 332 331 331 332 332 332 333 332 331 331 331 330 329 328 327 327 326 325 325 324 322 320 319 322 323 322 322 319
344 343 342 343 343 342 342 341 341 341 340 339 339 339 338 337 338 338 337 336 335 334 334 334 334 334 334 333 333 333 333 334 335 335 336 335 334 335 335 334 333 330 329 327 326 327 326 327 325 316 321 329 330 333 335 333 332 330 329 330 332 331 331 332 333 332 331 331 330 330 329 328 328 328 327 326 326 323 319 316 319 322 321 320 318
343 342 342 342 342 342 341 340 340 340 339 339 340 339 338 338 337 338 337 335 334 334 334 333 333 334 333 332 331 331 331 331 333 334 334 335 336 336 336 335 334 332 331 330 328 327 325 327 327 321 325 333 333 333 334 333 330 329 329 330 331 332 331 333 334 333 332 330 329 330 330 329 328 328 328 327 327 325 319 315 315 318 318 318 319
342 342 342 341 342 342 340 340 340 340 339 339 340 339 338 338 337 336 336 335 334 334 333 333 333 333 332 331 331 329 329 330 332 332 332 334 335 335 335 335 335 334 333 332 329 329 326 327 329 327 329 333 333 333 333 332 331 330 330 330 331 332 331 333 334 333 332 330 329 330 330 329 328 328 328 328 328 326 320 313 311 313 315 318 321
342 342 342 341 342 342 341 340 340 339 339 339 339 339 338 337 337 336 336 335 334 333 334 334 333 333 332 330 330 329 330 330 331 331 331 332 333 333 333 334 335 335 334 333 331 331 330 330 330 330 330 332 333 333 332 332 331 331 330 329 330 331 331 332 333 333 332 330 329 330 329 328 328 329 329 328 328 326 317 311 311 312 315 320 321
343 343 342 342 342 341 341 340 340 340 340 339 339 339 338 338 337 337 336 335 334 334 335 334 334 333 331 330 330 331 331 331 331 330 330 330 330 331 331 332 332 333 333 333 332 332 332 332 331 329 330 331 332 332 331 330 330 331 331 330 330 330 332 332 331 332 332 330 329 329 329 329 328 329 329 327 329 325 315 311 312 312 316 319 318
344 343 342 341 341 341 340 340 340 340 339 339 339 339 338 338 337 336 336 336 334 334 334 334 333 333 333 332 332 332 332 331 331 330 329 328 329 329 330 330 330 331 332 333 332 332 332 332 331 329 329 329 330 331 332 331 331 331 331 330 330 330 332 333 330 329 332 331 331 330 330 329 328 329 328 328 329 323 315 314 315 313 315 315 315
345 344 343 341 341 340 339 340 340 339 339 338 338 338 338 338 337 337 336 335 335 335 335 334 334 333 333 334 333 333 332 331 330 330 329 329 328 328 329 330 330 331 331 332 332 331 331 331 329 328 330 330 328 330 332 332 332 331 330 330 330 330 331 332 330 329 331 331 332 331 330 330 329 330 328 328 328 322 316 318 318 318 317 313 312
344 344 344 342 342 341 340 340 339 338 338 338 338 338 338 338 337 337 337 336 336 336 336 335 335 334 334 334 334 333 332 331 330 330 329 328 328 328 328 328 329 330 331 331 331 331 331 331 330 330 332 332 329 329 331 332 331 331 330 330 331 330 330 331 331 331 331 330 331 331 330 330 330 329 328 328 328 323 319 321 321 321 320 317 314
343 344 344 343 341 339 338 338 337 336 336 336 338 337 337 338 337 336 337 337 337 336 336 335 335 334 333 333 332 332 332 331 330 329 329 328 328 328 328 328 329 330 330 330 331 331 331 331 330 331 333 332 330 329 330 331 331 330 330 331 331 331 332 332 331 332 330 328 330 331 330 331 331 329 328 328 328 327 323 323 324 322 322 322 320
343 343 343 342 340 337 335 335 334 334 334 335 336 336 336 338 338 337 337 337 337 336 335 335 334 333 332 332 332 331 331 330 330 329 329 329 329 328 327 328 329 330 331 330 331 331 331 330 330 330 331 331 330 330 330 331 330 330 331 331 332 333 333 333 332 332 330 328 330 331 331 331 331 329 328 328 328 328 327 326 326 324 323 324 324
342 343 343 342 341 339 337 336 335 334 334 335 336 337 338 338 339 338 337 337 336 336 336 335 333 332 332 332 331 331 331 331 331 330 329 329 330 329 327 327 328 329 330 330 330 330 330 330 329 329 330 331 331 330 330 330 330 331 331 331 332 333 333 333 332 331 331 330 330 331 331 331 330 329 328 329 328 327 328 327 326 326 325 325 325
342 342 342 343 342 341 340 338 336 335 335 336 336 336 337 338 338 338 337 337 337 336 335 334 333 333 333 332 331 331 331 330 330 330 329 329 330 330 328 327 328 328 328 329 329 329 329 329 328 327 327 329 330 330 330 330 330 331 331 331 332 333 333 333 332 331 331 331 330 330 330 330 330 329 328 329 328 327 327 327 326 326 326 327 327
342 343 342 342 341 340 340 338 337 337 335 335 336 336 336 335 335 336 336 336 336 335 334 332 333 333 333 332 331 331 330 330 330 330 330 330 330 330 329 328 328 328 328 328 327 327 327 328 328 327 326 327 329 330 330 331 331 331 331 331 332 332 332 332 331 331 331 331 330 330 330 329 329 329 329 329 329 327 327 328 327 327 326 327 327
342 343 342 342 341 340 340 339 338 337 335 333 334 335 335 333 333 334 335 336 336 336 335 334 334 334 334 333 332 332 332 331 331 330 331 331 331 330 330 329 329 328 328 328 328 327 327 327 326 326 325 326 329 331 330 331 332 331 331 330 331 331 331 330 330 330 331 330 330 330 330 329 329 329 329 328 328 328 327 328 327 327 327 327 327
342 342 342 342 341 341 340 339 338 337 336 334 333 333 333 332 334 334 335 337 337 337 337 337 337 337 336 335 334 333 332 332 332 332 331 331 331 331 330 330 330 329 328 328 328 327 327 327 326 326 326 327 330 331 330 330 331 331 331 330 331 331 331 330 330 330 330 331 330 331 330 329 329 329 329 328 328 327 327 327 327 327 326 327 326
341 340 341 341 340 340 339 338 337 336 335 335 334 334 333 334 335 335 335 336 337 337 338 338 338 338 337 337 336 335 334 334 333 332 332 333 331 329 329 329 329 329 328 327 328 328 328 328 328 329 329 330 331 331 330 329 330 330 330 330 330 331 331 329 329 329 330 330 330 331 330 329 329 329 329 328 327 327 327 327 327 327 326 326 326
340 339 340 339 338 338 337 337 336 336 336 336 335 335 334 334 335 335 335 335 336 337 338 337 338 338 337 337 336 336 335 335 334 334 334 333 328 325 326 327 326 328 330 329 328 328 328 328 328 329 330 331 331 331 330 328 329 329 329 330 330 331 331 330 330 330 329 330 330 330 330 329 330 329 329 328 327 327 327 327 327 327 326 326 326
340 339 338 336 335 335 336 337 337 337 337 337 337 336 336 335 335 334 334 335 335 336 337 337 337 337 337 336 336 336 335 335 335 334 333 330 327 325 325 325 325 328 331 331 331 330 329 329 327 327 329 330 331 330 330 329 329 329 330 330 330 331 331 330 330 330 329 329 330 329 329 329 329 329 329 328 328 327 327 327 327 327 327 327 326
339 337 336 336 335 335 336 337 337 337 337 337 337 336 337 337 336 336 335 335 335 335 336 336 336 336 336 336 336 335 335 335 334 333 331 330 330 329 327 326 327 330 331 331 331 331 330 330 330 329 329 329 330 330 330 330 330 330 330 330 330 331 331 329 329 329 328 328 329 329 329 329 329 328 328 328 328 328 327 327 327 327 327 327 327
Wind_Speed
19 20 20 19 18 18 18 18 17 15 15 14 14 12 12 12 12 12 12 13 13 14 13 13 12 12 14 15 16 17 19 20 20 19 17 16 17 16 15 15 15 15 14 14 13 12 12 11 11 11 11 11 11 11 11 12 12 13 13 13 13 15 19 20 19 18 18 18 20 21 21 21 20 20 20 20 19 19 19 20 20 20 21 21 21
21 22 20 20 18 18 18 18 17 15 15 14 13 12 11 12 12 12 12 12 13 13 12 12 11 12 14 15 16 18 20 21 19 17 16 16 16 16 15 15 15 14 13 13 13 13 12 11 11 10 11 10 10 11 12 12 13 12 11 12 14 18 20 21 21 19 17 16 18 20 21 20 19 19 19 19 18 18 18 18 18 20 21 21 21
20 22 21 20 18 18 18 17 17 15 15 14 13 12 11 11 11 11 12 12 13 13 12 11 11 13 14 16 17 18 20 20 18 15 15 15 16 16 15 14 14 14 13 13 13 12 11 11 10 10 10 9 10 11 12 12 11 11 14 18 20 21 22 22 21 18 16 15 15 16 18 18 18 17 17 18 17 18 17 17 17 18 19 19 20
18 22 22 21 19 18 18 17 17 15 15 14 13 12 11 11 11 10 11 12 13 12 11 11 12 13 15 16 17 19 20 19 17 15 15 15 15 15 15 14 14 13 13 12 12 11 10 10 9 8 8 8 9 10 11 11 12 16 22 25 24 24 23 21 19 16 14 14 13 13 14 15 16 16 15 16 15 16 17 17 17 17 18 18 19
17 23 22 21 20 18 18 17 16 16 15 14 12 12 11 11 10 10 11 11 12 12 11 11 12 14 15 17 19 20 20 18 16 15 15 16 15 15 15 14 14 13 12 11 10 9 9 9 8 8 8 8 9 10 11 13 19 24 26 25 23 22 21 19 19 16 13 11 10 8 9 10 14 15 14 14 14 15 15 16 17 17 17 18 19
15 22 22 22 20 18 18 17 17 16 15 13 12 11 11 11 10 9 10 12 12 12 11 11 12 14 15 17 20 20 18 17 16 16 16 16 15 15 14 14 13 13 11 9 9 10 10 10 10 10 10 10 10 11 13 20 26 26 23 22 20 19 17 15 14 14 12 8 6 5 7 7 12 14 14 14 13 14 15 16 16 16 16 17 18
16 23 22 21 20 20 18 17 17 16 14 13 12 11 11 10 9 9 10 12 12 11 11 11 12 14 15 17 19 18 17 16 16 16 16 15 15 14 14 13 12 11 9 9 10 11 11 11 12 12 12 13 13 14 18 25 27 24 21 19 17 16 14 13 10 9 9 5 2 5 5 7 11 14 14 13 12 12 15 16 16 15 15 16 17
19 25 21 21 20 20 18 18 16 15 14 12 12 11 11 10 9 9 10 12 12 11 11 11 12 14 15 16 18 17 16 16 15 15 15 15 14 14 13 12 11 10 8 10 11 12 12 12 13 14 14 14 15 17 22 27 26 24 21 19 17 16 16 15 11 7 9 7 2 4 3 10 13 14 13 13 12 12 15 15 15 15 14 15 16
24 24 21 20 19 19 19 17 16 15 14 12 12 11 10 9 9 9 10 12 12 11 11 12 12 13 15 15 16 16 16 15 15 15 14 14 13 13 12 11 10 8 9 11 12 12 12 12 13 14 14 14 15 18 24 27 26 24 22 20 20 19 18 16 13 9 8 6 2 4 7 13 15 16 14 13 12 12 13 14 14 14 14 14 15
24 22 20 20 19 19 18 17 16 14 13 12 11 11 10 9 9 9 10 12 12 11 11 12 12 13 14 15 16 16 15 14 14 14 13 13 12 12 11 10 9 9 11 12 12 12 12 12 13 14 14 14 16 20 25 27 26 24 22 21 20 18 17 14 13 11 7 3 1 5 6 11 15 15 14 14 12 12 13 13 13 13 14 14 15
19 19 20 19 19 19 18 17 15 14 13 12 11 10 10 10 10 9 10 12 12 11 12 11 11 13 14 15 15 16 15 14 13 13 12 12 11 11 10 10 10 10 11 11 11 11 11 12 13 13 13 15 19 23 26 27 25 24 22 21 19 16 15 13 12 11 6 3 3 4 4 9 13 12 11 12 12 12 13 13 12 11 11 12 13
14 18 20 18 19 18 18 16 15 14 12 12 11 11 10 10 10 9 11 12 12 11 11 11 12 13 14 15 15 16 15 14 13 12 12 11 11 11 10 10 10 10 10 11 10 10 10 11 12 13 13 16 21 24 26 26 25 23 21 20 18 16 14 12 10 7 4 2 1 3 5 9 11 11 11 10 12 11 10 10 9 9 9 9 10
13 16 20 18 19 19 18 16 14 13 12 12 11 11 11 10 10 9 11 12 12 11 11 11 12 13 14 15 15 15 14 13 13 12 11 11 12 11 9 9 9 9 9 10 9 10 10 11 12 12 14 17 21 24 26 26 24 23 21 20 18 16 13 10 6 2 1 1 4 5 7 10 11 12 11 11 11 10 9 8 9 9 9 9 10
14 18 20 18 19 19 18 16 14 13 12 12 11 11 11 10 10 10 12 13 12 11 11 10 12 13 14 14 15 15 14 13 12 12 11 11 12 10 8 8 8 8 9 9 9 9 10 11 12 12 14 18 21 23 25 25 24 23 21 19 16 14 11 7 2 2 2 4 5 5 7 10 10 11 11 11 10 9 9 9 9 10 10 10 10
14 19 21 18 19 18 17 16 14 13 12 12 12 12 11 11 10 10 12 13 12 11 10 10 12 13 13 14 14 14 14 13 12 11 11 11 11 9 8 7 7 8 8 8 8 9 10 11 11 12 14 19 21 22 24 25 24 22 20 18 15 12 8 6 2 3 3 5 5 5 8 10 10 10 10 10 10 10 9 9 9 8 9 9 9
12 18 20 18 17 18 17 16 15 14 13 13 13 13 12 12 11 11 12 13 12 11 10 10 12 13 13 13 13 13 13 12 12 11 11 11 11 8 7 7 7 7 7 8 8 9 9 10 11 11 14 18 20 22 25 24 22 20 18 17 14 11 6 5 3 3 5 6 6 6 7 9 9 10 10 10 10 9 9 8 7 7 7 7 7
11 16 19 17 17 18 18 17 16 15 15 14 14 14 13 12 12 12 12 12 11 10 10 10 11 12 12 12 12 12 12 11 10 10 10 11 10 8 7 6 7 7 7 7 8 8 9 9 10 11 13 17 20 21 23 22 22 20 18 16 14 11 6 4 5 6 7 7 5 5 6 8 8 9 9 9 9 8 8 7 6 6 6 6 7
12 15 18 16 17 18 18 18 17 16 15 14 14 13 13 13 13 12 12 11 10 10 10 10 11 11 11 10 11 11 10 10 9 9 10 11 10 9 7 6 7 7 7 7 8 9 9 9 10 11 13 16 17 19 21 22 21 20 18 16 13 9 6 3 4 6 7 6 5 4 5 6 6 7 7 7 8 8 7 6 6 6 6 6 6
15 16 18 16 17 17 18 17 16 16 14 13 13 13 13 13 13 12 10 10 10 10 10 10 10 11 11 9 9 9 9 9 8 9 9 10 10 10 8 7 7 7 7 7 7 9 9 9 10 11 12 14 15 17 19 21 20 19 17 15 11 8 5 3 3 5 5 5 4 4 5 5 6 7 6 6 6 6 6 5 5 5 5 5 4
16 17 18 17 16 16 17 16 15 14 13 13 13 14 14 13 12 11 10 9 10 10 10 10 10 11 10 9 8 8 8 8 8 8 9 10 10 10 10 9 8 7 8 8 7 8 9 10 10 11 11 12 14 16 18 20 20 19 16 13 10 7 4 3 3 5 4 4 4 4 5 5 5 6 6 5 4 4 4 3 3 3 3 3 3
17 18 17 16 16 15 16 15 14 13 13 13 13 14 14 13 12 11 10 10 10 10 10 11 11 11 10 9 8 8 8 8 8 8 9 10 10 11 11 10 9 9 9 8 8 8 9 10 10 10 10 11 12 14 17 19 19 18 16 13 10 6 3 3 2 3 2 3 4 3 4 5 5 5 5 4 4 3 3 3 3 3 1 1 1
17 19 18 17 16 15 15 14 14 12 12 12 13 13 13 14 13 12 12 11 11 11 11 11 11 11 11 11 10 9 9 9 8 8 9 10 11 11 12 12 11 10 10 10 9 9 9 9 9 9 10 10 11 12 14 15 15 17 16 12 8 5 2 3 2 1 1 2 3 3 3 4 4 4 4 5 5 4 4 4 4 3 3 2 0
18 20 19 18 16 16 15 14 14 12 12 12 13 12 12 14 13 13 13 13 12 11 11 11 10 10 10 11 11 11 11 10 9 8 9 11 12 12 12 13 12 11 11 11 10 10 10 10 9 9 10 10 10 11 12 11 11 13 13 11 6 3 1 0 0 1 2 3 3 3 3 3 3 4 4 5 5 4 4 4 4 3 3 3 2
18 19 19 18 17 17 15 14 13 12 12 12 12 12 12 13 13 13 12 13 12 12 11 10 9 9 10 11 11 12 12 11 10 10 11 10 11 13 14 14 14 13 12 12 12 12 11 11 10 9 9 10 10 11 10 8 7 8 11 10 5 3 2 3 3 3 4 4 4 4 4 3 3 3 4 4 5 4 4 4 4 3 3 4 3
17 17 17 18 16 15 14 13 13 12 11 11 12 12 13 13 13 12 11 12 11 11 11 9 9 9 9 9 10 11 11 11 10 11 11 10 9 11 14 14 14 14 13 13 13 14 13 12 11 9 9 9 10 10 10 7 3 4 11 10 4 4 4 5 5 4 4 4 5 5 4 3 3 4 5 5 5 5 4 4 3 3 3 4 4
17 17 17 18 17 14 13 13 13 12 11 11 11 11 13 13 12 12 11 11 9 9 9 8 8 7 7 8 10 10 9 9 8 9 10 9 8 8 11 13 14 14 14 14 15 15 14 13 12 11 10 9 9 8 8 7 1 2 5 8 6 6 7 8 7 7 5 5 5 5 5 3 4 5 6 6 7 6 5 4 4 3 3 3 3
17 16 16 17 17 15 13 13 14 14 13 12 11 11 13 13 12 12 11 10 8 8 8 7 7 7 7 8 10 10 9 8 8 9 10 9 8 8 9 11 13 14 14 15 15 16 16 15 13 12 11 9 8 6 6 4 2 4 1 7 8 7 8 9 8 8 6 5 5 4 5 4 5 6 7 8 8 7 7 6 5 3 2 3 3
16 15 15 16 18 16 14 14 13 14 15 13 12 12 12 12 12 11 10 9 8 8 8 7 7 7 7 9 10 9 9 9 10 11 12 11 10 10 10 10 12 14 15 16 15 16 16 16 15 14 13 11 9 7 7 6 5 5 2 5 10 11 10 12 10 9 6 5 5 4 5 5 6 6 7 8 8 9 8 7 6 3 3 3 2
15 15 15 16 17 15 13 13 13 14 14 12 12 11 10 10 11 11 9 8 8 8 8 8 8 8 8 9 10 10 10 10 11 12 13 13 13 13 13 11 11 13 16 16 15 16 16 17 17 15 14 13 11 9 8 9 8 8 7 7 11 13 12 14 12 10 7 5 4 4 5 5 5 6 6 7 8 8 8 7 5 3 3 3 2
13 14 14 17 16 14 13 12 13 14 14 12 11 11 9 9 11 10 8 7 8 7 7 8 8 8 8 9 11 11 11 12 12 13 14 15 16 16 15 14 13 14 15 16 15 15 15 16 18 17 16 15 13 11 9 12 12 10 11 12 13 13 13 15 13 10 8 6 5 4 4 4 4 5 5 6 7 7 6 6 5 4 3 2 2
14 13 14 16 16 14 12 11 12 13 13 12 10 10 9 9 10 9 8 8 7 6 7 8 8 8 8 9 11 12 12 13 14 15 16 17 18 18 17 17 16 15 15 15 14 14 13 13 16 18 18 17 15 13 13 15 14 13 13 15 15 15 15 16 14 11 9 7 5 3 3 3 4 4 4 5 5 6 5 5 4 3 2 2 2
14 13 12 14 15 13 11 11 12 12 12 11 10 10 9 9 9 8 8 8 7 7 7 8 8 9 9 10 11 12 12 13 15 16 18 19 20 20 19 19 18 17 15 15 15 15 15 13 14 17 17 17 17 16 17 17 17 17 15 16 18 18 17 16 15 13 9 7 5 4 3 2 3 3 3 4 5 5 5 4 4 3 1 1 2
14 12 12 14 14 12 11 12 12 12 11 10 10 11 10 9 9 9 8 8 8 8 8 8 9 10 10 10 10 11 12 13 14 16 18 20 22 22 21 21 20 19 18 18 19 19 20 17 15 16 17 17 18 18 21 20 20 19 16 17 21 21 19 18 17 14 10 8 6 5 4 3 2 2 2 3 4 4 5 5 4 2 1 2 2
15 13 12 14 14 13 12 12 11 11 10 9 10 10 10 9 8 8 8 8 9 9 10 10 11 11 11 11 9 10 11 11 13 15 18 21 23 23 21 21 21 21 20 20 21 21 22 21 17 16 19 18 18 20 25 22 19 19 17 18 21 20 19 20 18 15 11 9 8 7 5 3 2 1 2 3 3 4 5 5 4 3 3 3 2
15 14 12 13 14 13 12 11 11 10 10 10 9 8 8 8 6 7 7 7 9 10 10 11 10 11 10 10 9 9 10 10 11 14 17 21 23 24 21 21 22 22 22 21 21 22 22 23 20 17 19 19 19 22 24 22 20 21 18 17 20 17 16 17 15 14 12 10 9 8 6 4 3 2 2 2 2 3 5 5 4 4 3 2 2
16 15 13 14 14 13 11 11 11 11 10 9 8 7 7 6 6 6 6 6 8 8 8 10 10 9 8 8 8 9 10 11 12 14 17 20 22 22 21 21 22 23 23 22 22 23 23 24 22 19 19 20 21 22 22 22 24 25 20 18 19 14 12 13 12 12 12 10 9 8 7 4 3 3 2 1 1 2 3 3 3 2 1 3 3
15 15 14 14 14 13 12 11 11 11 9 8 7 7 7 6 6 6 6 6 6 6 6 9 9 8 8 8 9 10 11 12 13 14 16 19 19 19 19 20 22 23 24 24 24 24 25 25 23 21 21 22 22 22 22 23 24 26 23 20 18 14 12 13 13 12 10 9 10 9 8 5 4 3 2 1 0 1 1 1 2 2 3 4 4
15 15 15 14 13 13 12 11 11 11 10 8 7 7 7 6 6 6 5 4 4 4 4 6 7 8 8 9 10 12 12 12 12 13 15 16 16 17 18 20 22 23 23 24 24 25 25 25 25 24 24 24 23 21 20 22 23 25 24 21 18 17 16 15 16 14 10 10 10 9 8 6 4 4 3 2 1 1 2 3 5 6 5 4 4
16 16 16 15 14 13 12 12 11 11 11 9 8 8 8 8 8 6 5 4 4 3 3 4 6 8 9 10 11 12 12 12 11 13 14 14 15 16 17 20 22 23 23 23 24 25 26 26 25 24 24 24 25 22 18 19 21 21 22 22 20 19 19 16 16 15 11 10 10 10 9 6 6 6 5 4 3 4 4 4 5 7 7 6 6
17 17 16 15 14 13 13 13 12 11 11 11 10 9 9 8 8 7 6 5 4 4 3 4 7 8 9 9 10 11 11 11 12 12 14 15 16 16 16 19 21 23 23 23 24 24 25 25 24 24 24 23 26 26 21 19 19 20 20 22 22 21 21 18 16 15 13 12 12 12 11 8 8 8 7 5 5 5 5 4 3 6 7 8 8
18 18 18 16 14 13 13 14 14 13 11 11 9 8 9 7 6 7 7 7 5 6 6 6 8 9 9 10 10 10 11 11 12 13 13 14 15 15 16 18 20 22 22 22 22 22 23 23 22 23 23 22 24 26 25 22 20 20 20 21 21 21 20 19 17 17 16 14 13 14 13 11 10 10 8 7 6 6 6 5 3 5 6 7 8
19 18 18 17 15 14 14 14 13 12 11 10 9 8 8 7 6 6 7 7 6 7 7 7 8 9 9 9 9 10 11 11 13 13 14 15 15 15 16 17 19 21 22 21 21 22 22 21 21 22 21 21 23 24 25 26 24 22 20 20 21 22 20 18 17 18 16 14 14 15 14 12 12 11 9 9 7 6 7 7 5 5 5 5 6
17 17 17 16 15 14 13 14 13 11 11 10 10 10 11 10 9 9 9 8 7 7 9 9 9 9 9 9 9 10 10 11 13 14 15 15 15 15 16 17 18 19 21 22 22 23 22 21 21 20 20 21 23 23 24 26 26 24 20 20 22 23 20 18 19 18 16 15 15 15 15 14 14 13 11 11 9 7 8 8 7 6 5 6 6
15 15 15 14 14 13 12 12 12 11 11 12 12 13 14 14 14 13 12 11 10 10 12 12 11 11 11 11 10 10 11 12 13 14 15 15 15 15 15 17 17 18 19 21 22 23 23 23 22 21 21 22 23 24 24 25 25 24 21 20 20 20 20 19 20 20 17 16 16 15 15 15 15 14 13 12 10 8 8 8 8 7 6 7 6
14 14 14 13 13 12 11 10 10 10 10 12 15 14 13 13 14 15 14 15 15 12 13 14 13 12 12 11 11 11 12 13 13 14 15 15 15 15 15 16 17 18 19 20 22 22 23 23 24 24 23 24 25 26 26 25 24 24 23 21 17 16 19 19 18 20 19 18 17 16 16 16 16 15 13 13 11 9 9 9 9 8 8 8 7
14 14 13 13 12 11 11 10 10 10 9 11 16 16 14 11 10 10 11 11 12 10 10 11 11 11 10 11 12 13 14 14 15 16 15 14 13 13 14 15 16 18 19 21 22 22 23 23 24 25 25 25 26 28 27 25 23 23 23 23 19 17 18 19 17 18 19 19 18 17 17 17 16 15 14 13 12 10 10 11 11 9 9 9 8
15 15 14 13 12 11 11 9 9 10 9 9 12 13 11 8 8 8 8 8 9 9 9 10 11 11 11 12 13 14 15 16 17 17 16 15 13 12 14 15 16 18 19 21 23 23 22 23 24 25 26 26 27 29 27 24 24 24 24 24 24 20 16 17 20 18 18 19 19 18 18 18 17 16 15 15 14 12 12 12 12 11 11 10 9
13 13 13 12 10 9 9 8 8 9 7 6 5 5 5 5 6 6 7 8 10 10 10 11 13 14 13 14 15 16 17 17 18 16 14 14 12 13 14 15 17 19 20 21 22 23 23 22 23 25 26 27 27 28 26 25 25 26 26 25 26 23 16 17 20 18 17 19 21 20 18 18 17 16 15 15 15 13 12 12 13 13 13 11 11
13 12 10 9 8 7 7 7 6 6 5 3 1 0 1 3 5 5 7 9 10 10 9 10 13 14 14 15 16 17 18 19 18 15 13 13 13 16 18 17 18 20 20 21 21 21 23 23 23 25 26 27 26 26 26 26 25 26 26 25 27 24 17 17 19 18 18 18 20 22 21 20 18 18 17 16 15 15 14 13 13 14 14 12 12
12 9 6 6 6 5 5 6 6 5 3 2 1 0 1 1 1 3 5 7 9 11 11 11 13 15 15 16 17 18 20 20 17 14 16 18 17 18 20 20 20 20 19 20 21 22 23 24 23 24 26 27 26 25 25 25 25 25 25 25 27 26 20 19 19 19 18 16 16 19 22 22 20 19 19 18 17 16 16 15 14 15 15 14 14
8 6 5 5 5 6 6 6 5 4 2 0 1 1 2 2 2 3 3 3 7 10 13 14 14 15 16 17 19 20 22 21 19 18 19 20 19 19 20 21 21 21 19 19 22 24 23 24 24 23 25 27 25 24 24 23 24 24 23 23 28 29 25 23 21 20 19 18 15 16 19 20 19 18 19 19 19 18 18 17 15 15 16 16 15
Wind_Direction
163 160 158 154 152 148 145 142 140 140 137 134 129 126 117 108 100 89 87 91 92 87 78 72 72 85 98 102 104 112 116 117 116 111 106 102 102 102 102 101 100 98 98 97 96 96 95 96 96 98 99 101 102 100 99 97 97 92 83 69 74 93 88 78 74 75 83 89 91 88 85 82 81 80 80 80 81 81 80 79 79 79 78 77 78
162 162 159 155 154 149 144 141 141 141 138 135 133 130 119 111 103 91 89 94 96 91 81 76 78 90 102 105 108 115 119 120 118 111 104 102 102 101 100 98 98 97 96 94 93 91 90 92 93 96 98 101 104 103 101 99 99 92 79 75 89 99 88 78 74 73 78 84 89 91 88 83 80 80 81 81 81 80 79 79 79 78 78 77 77
162 164 159 155 154 149 144 141 141 141 139 137 137 132 121 113 105 95 91 98 100 93 85 81 83 95 106 108 111 118 121 122 120 112 105 103 102 102 99 97 96 95 94 91 90 89 88 88 90 93 95 99 104 103 101 101 96 88 87 92 97 96 90 84 79 78 80 83 84 83 84 84 82 80 81 82 82 81 80 80 79 78 78 77 77
163 166 160 156 151 148 144 141 141 139 139 140 140 132 124 116 109 99 95 103 103 97 90 85 89 100 110 112 114 119 122 124 120 112 107 104 102 101 98 96 93 92 90 89 89 88 87 85 88 87 91 99 104 105 104 99 91 94 97 96 94 91 89 85 81 77 79 86 88 75 69 81 85 82 81 82 82 82 82 81 80 79 80 79 79
160 168 163 155 149 146 143 140 138 138 140 142 141 133 126 119 113 104 100 108 108 101 93 91 96 107 115 115 117 121 123 123 118 112 108 105 103 100 97 96 93 91 88 88 86 83 83 81 82 80 84 91 102 109 105 98 98 100 99 97 94 90 87 83 80 71 68 78 92 67 44 75 84 83 82 81 82 83 85 84 83 82 81 81 80
162 168 163 154 148 144 141 138 137 138 142 143 141 133 129 124 118 108 105 113 113 104 97 97 102 112 118 118 121 123 123 121 116 112 110 108 105 101 99 98 95 93 92 90 83 79 80 79 81 81 83 86 97 104 102 103 104 102 99 99 96 92 87 81 74 69 65 53 70 35 17 84 85 84 86 83 84 86 90 87 85 84 83 83 82
169 167 160 154 147 141 140 136 137 139 142 142 139 135 133 128 121 111 111 119 117 109 102 104 108 116 121 122 126 126 123 121 116 113 112 110 106 104 102 100 97 97 96 91 85 83 82 82 84 85 86 87 94 99 106 110 107 104 102 99 93 87 79 71 60 72 88 74 67 356 5 106 92 90 93 88 88 89 93 88 84 83 83 85 85
163 163 157 152 145 139 137 135 137 139 140 141 139 137 135 129 122 113 116 124 121 114 109 111 113 117 123 127 130 128 125 122 118 114 113 111 108 106 104 102 102 103 97 90 89 86 85 87 88 88 88 89 95 102 112 113 108 105 101 96 89 84 76 74 74 103 129 129 133 347 61 114 97 97 99 95 94 90 91 88 85 84 85 87 87
155 156 154 151 143 138 134 134 136 137 140 141 140 138 135 128 122 117 123 129 126 119 115 116 116 118 125 128 131 130 126 122 119 116 114 112 110 107 106 107 109 107 98 94 92 89 89 91 91 91 91 93 97 105 115 115 110 106 102 98 93 88 86 87 93 116 132 126 114 21 86 116 108 104 103 100 100 95 90 86 87 89 90 89 88
151 150 153 150 141 136 132 134 135 137 140 140 139 136 133 127 125 124 129 134 131 124 119 119 116 118 125 128 132 132 127 123 119 117 115 113 111 109 108 110 109 104 99 96 93 92 94 94 95 94 94 95 101 109 116 115 110 108 105 102 99 97 98 100 106 120 135 137 3 11 60 116 122 118 113 111 109 104 98 93 95 98 97 94 92
143 148 152 147 140 134 131 133 134 138 139 138 137 133 132 130 130 130 136 140 136 127 122 121 117 118 124 128 132 132 129 125 122 118 115 114 112 110 109 108 103 98 97 97 94 95 97 99 99 99 100 100 109 115 115 112 108 106 103 100 99 102 107 112 117 127 157 219 299 344 50 114 125 125 120 122 125 120 114 111 110 111 108 102 100
130 146 151 146 140 133 131 133 135 137 137 136 135 136 137 136 137 137 142 144 139 131 125 124 120 120 124 129 132 132 132 128 124 120 117 116 113 110 110 106 99 97 98 98 97 99 100 103 103 104 106 108 116 118 114 110 107 104 101 99 101 105 110 115 122 135 177 216 345 27 98 108 106 107 104 114 132 138 133 130 128 126 123 119 116
117 140 149 147 139 133 132 133 135 135 135 138 139 141 142 141 142 143 147 146 142 134 130 131 123 123 126 130 134 133 134 131 126 123 124 123 116 114 113 106 100 99 100 101 102 104 106 107 108 109 111 118 122 119 114 112 108 106 103 102 104 107 110 114 124 162 245 42 56 71 102 103 96 96 95 99 116 131 130 126 121 119 120 121 120
115 139 149 147 139 135 133 133 133 134 139 142 143 146 146 147 147 147 149 147 144 138 136 136 127 126 130 133 136 134 135 132 127 129 133 129 122 123 121 110 104 103 105 107 109 111 113 114 114 114 116 126 128 121 116 113 111 109 107 105 106 108 112 118 109 325 356 43 58 84 101 98 96 97 94 93 100 107 107 104 102 99 100 103 107
122 143 149 147 142 137 133 133 134 139 145 145 148 148 149 150 150 148 148 148 146 144 142 139 132 130 133 136 138 138 137 134 132 136 140 133 129 133 129 121 115 112 113 115 119 119 120 121 122 122 123 130 131 123 117 115 113 110 108 107 109 111 110 108 64 358 46 70 78 94 98 95 97 98 96 95 97 98 95 93 90 86 87 89 94
128 145 150 149 146 140 136 139 143 148 149 150 152 150 152 152 148 144 145 150 149 148 147 145 140 135 136 138 142 144 142 142 140 144 146 140 139 141 137 134 127 121 123 124 128 127 128 129 130 131 129 133 132 124 119 117 115 112 111 113 116 117 111 96 67 46 69 73 83 94 96 97 97 98 98 97 98 98 94 90 87 84 84 86 87
132 148 152 151 151 147 145 148 151 152 152 153 153 151 152 150 144 140 144 151 152 153 155 152 147 141 140 139 145 150 150 153 151 152 153 147 146 149 152 149 137 131 133 133 136 136 136 138 137 136 134 135 134 128 125 122 119 117 117 118 120 122 124 104 67 56 60 59 66 84 93 98 99 97 97 100 102 104 103 99 94 94 90 86 86
138 152 155 156 157 155 154 154 155 154 154 153 151 151 150 147 142 139 143 152 155 159 161 157 152 151 148 142 146 153 158 162 159 157 155 152 155 160 166 163 150 143 144 143 145 145 143 144 141 138 136 138 138 134 130 127 125 123 119 119 123 132 139 116 54 41 41 43 51 78 91 94 95 93 94 97 101 104 105 106 104 103 100 94 90
140 152 158 163 165 161 160 158 158 155 153 152 151 151 148 146 142 141 146 154 159 163 166 161 160 160 157 150 148 156 166 170 167 161 155 158 167 171 175 174 163 156 157 155 153 153 149 148 146 140 138 140 142 140 135 130 128 125 123 125 132 146 149 117 51 36 32 36 49 71 78 81 89 92 89 87 93 100 98 102 110 112 109 105 103
140 155 162 168 169 165 164 161 161 158 155 155 155 152 147 145 144 148 154 158 162 166 169 167 169 165 162 161 160 167 174 180 178 166 161 166 174 179 182 182 175 168 168 165 162 160 155 154 151 145 142 144 144 142 137 133 131 126 125 128 136 152 145 107 46 34 36 47 53 60 63 62 73 83 85 82 87 92 86 80 85 104 116 121 117
145 159 167 172 171 169 168 165 164 161 158 159 159 154 148 145 149 157 159 161 163 169 172 172 174 170 167 170 172 179 183 192 191 177 173 173 176 184 189 189 184 177 176 173 171 167 162 160 157 152 146 144 145 143 141 137 134 129 124 126 143 166 151 106 44 23 43 59 49 50 60 54 59 69 71 73 74 65 55 34 24 35 46 96 122
153 163 171 175 172 169 171 167 164 163 163 164 163 158 151 150 156 161 161 162 163 169 173 172 176 176 176 179 183 187 191 200 202 193 186 180 180 189 194 195 193 187 182 179 178 174 169 166 163 159 150 144 145 144 144 140 137 134 129 131 153 182 140 97 94 51 36 46 36 40 49 49 57 61 56 52 53 51 38 22 8 8 357 335 31
159 164 169 172 171 169 172 169 167 167 168 169 166 161 156 156 160 163 162 162 163 171 175 177 181 183 184 187 190 191 195 200 206 210 202 193 187 193 200 199 199 196 188 185 184 182 175 171 169 165 155 147 147 148 147 143 139 137 133 135 159 191 144 91 16 7 342 349 2 15 24 40 56 52 51 45 44 41 27 17 10 3 341 316 313
162 164 167 168 171 171 173 173 174 175 173 172 168 163 159 162 164 164 163 160 163 173 175 175 178 185 190 193 197 198 201 203 206 214 214 207 196 197 204 206 204 201 196 191 189 189 182 176 173 169 164 155 152 152 147 139 128 128 127 129 162 207 204 260 297 348 330 323 335 347 357 24 43 34 34 35 32 31 22 14 14 2 336 317 308
168 169 171 169 171 173 173 176 181 181 178 174 169 164 161 166 168 164 162 161 168 178 173 169 177 187 193 198 201 202 208 211 214 221 223 218 207 202 206 212 211 207 202 197 197 195 189 183 178 172 173 168 160 157 150 134 84 122 129 125 169 228 241 267 289 313 320 313 317 331 339 3 24 13 14 16 16 24 22 5 6 349 322 313 305
178 176 175 172 173 176 174 178 183 180 181 179 171 162 160 167 172 168 167 170 177 185 179 176 188 197 201 205 204 204 210 215 220 229 234 225 219 213 210 215 216 215 210 204 204 201 198 192 184 180 182 184 185 184 167 142 64 255 150 138 183 234 257 265 279 293 313 319 312 321 325 340 0 356 356 4 10 13 13 2 356 341 316 305 291
182 182 180 176 177 181 180 183 184 179 181 180 169 158 158 169 178 174 175 181 183 189 194 188 195 210 215 216 212 210 213 214 211 221 237 235 230 231 227 222 216 217 217 214 213 209 207 202 194 189 190 197 202 203 200 171 155 260 201 145 190 231 256 264 279 288 305 325 319 315 314 329 347 350 347 352 0 357 357 356 344 334 304 291 277
181 184 183 179 180 185 184 186 185 180 184 182 170 161 161 173 180 178 183 193 189 191 204 199 206 219 221 224 223 223 225 224 215 216 233 243 244 243 242 235 223 220 219 220 224 222 216 212 207 198 197 196 196 202 218 218 190 223 227 162 206 228 246 263 274 278 290 321 327 311 305 324 340 349 350 349 354 350 349 348 337 321 283 277 261
177 180 181 180 182 188 189 189 187 187 192 185 168 162 166 176 179 181 192 207 200 199 209 212 225 231 227 229 232 234 234 236 232 228 235 246 250 246 242 242 237 233 227 220 222 229 226 224 220 211 204 193 200 220 226 232 213 210 223 204 218 229 240 253 259 265 278 306 321 312 310 327 344 351 355 351 351 350 347 341 334 313 278 260 225
175 179 178 179 183 190 191 187 189 194 196 186 169 165 170 178 182 186 203 216 211 224 231 227 240 246 241 239 240 240 238 241 245 245 243 245 249 245 241 243 243 243 239 226 217 224 230 234 232 224 214 204 214 233 244 248 229 214 224 219 220 228 236 242 246 255 265 281 300 313 315 327 342 349 354 352 349 354 350 336 332 322 293 250 212
171 175 173 176 181 187 185 180 189 194 194 190 176 170 173 180 188 195 210 222 224 246 254 249 252 258 259 254 251 247 243 245 249 254 254 248 248 248 243 244 246 246 249 245 235 232 233 239 241 233 222 218 223 235 254 250 223 212 224 226 224 224 229 237 241 247 254 262 276 304 318 324 331 342 350 354 354 357 354 338 332 326 303 248 216
167 169 165 169 177 182 175 171 183 190 195 194 182 179 181 183 195 208 220 231 239 250 257 260 262 266 265 262 261 257 254 251 250 255 257 252 248 249 246 244 244 243 247 252 251 247 243 242 240 234 226 225 225 237 257 245 217 213 220 232 232 226 228 235 240 241 244 249 259 280 294 310 321 339 356 5 8 2 356 348 333 322 300 224 199
158 158 160 168 176 176 166 169 178 186 193 188 184 184 182 187 200 213 224 239 253 260 261 261 265 268 266 265 266 264 262 257 252 252 254 254 250 249 248 242 239 239 243 250 251 248 247 247 238 225 220 227 229 239 250 239 221 216 223 240 238 233 233 230 233 235 234 242 250 262 271 284 299 337 1 4 5 4 357 346 325 299 284 272 222
153 152 159 170 173 170 166 172 177 182 185 179 184 184 183 194 202 209 223 243 258 267 269 265 264 266 266 266 262 257 257 254 253 252 250 253 252 251 250 245 241 239 243 250 249 244 243 246 239 219 213 227 238 245 251 246 228 220 234 242 231 231 227 216 221 227 230 237 241 248 256 268 274 307 347 348 353 2 352 337 313 285 282 289 257
157 154 157 162 165 166 165 171 175 177 181 179 183 185 188 204 208 211 226 245 257 266 268 261 255 258 262 260 253 246 247 251 255 256 253 252 252 253 254 249 246 243 244 248 245 240 240 241 238 223 216 227 239 246 252 250 232 226 243 241 222 221 215 207 215 224 229 229 230 239 241 258 283 289 316 336 343 356 346 327 311 292 276 264 219
156 157 155 154 159 162 159 165 171 172 181 185 183 181 190 209 216 219 234 248 254 262 265 263 262 264 264 255 246 240 242 250 254 255 254 252 252 254 253 249 247 245 243 243 241 240 239 238 237 231 226 230 238 244 247 245 235 231 242 241 227 218 204 205 217 221 224 227 229 234 234 249 268 273 294 306 321 349 341 323 321 308 238 174 169
155 159 157 157 158 156 155 160 163 164 175 183 178 170 176 202 225 234 241 244 248 248 252 268 275 271 261 250 247 247 250 253 250 248 249 251 251 253 251 248 246 245 242 239 240 241 239 236 237 237 235 233 236 244 246 242 236 233 236 239 235 227 211 213 228 225 215 225 235 235 237 247 251 257 275 263 279 351 350 17 69 76 113 149 165
151 154 157 162 162 158 158 159 160 160 163 169 168 166 167 188 218 234 235 233 247 241 241 262 271 266 260 255 252 253 254 252 248 245 246 247 246 247 248 247 244 241 239 237 238 239 237 236 238 240 242 238 234 240 249 247 241 236 235 236 233 228 218 215 234 239 216 216 232 239 243 253 261 254 250 250 215 150 132 105 91 89 99 127 157
153 155 158 163 167 165 164 165 164 158 156 163 167 168 168 178 195 210 230 235 240 242 236 235 243 256 261 258 256 256 255 250 246 243 242 242 240 242 243 241 239 236 234 233 233 234 235 237 237 240 243 238 231 233 246 251 247 242 238 238 236 234 230 221 228 234 221 213 222 237 244 250 264 254 247 247 203 174 151 122 97 93 94 104 121
161 160 159 163 169 169 171 169 166 164 165 169 168 165 163 171 185 195 215 229 232 240 233 210 220 239 247 248 251 255 255 248 244 241 241 243 243 244 241 236 235 235 234 231 231 233 235 237 238 241 240 233 229 230 236 245 246 242 239 238 239 236 231 226 223 221 221 218 215 231 240 239 248 248 251 240 202 190 176 157 118 106 99 101 110
169 167 163 163 168 172 175 169 164 169 171 171 168 162 160 170 187 193 205 221 230 235 232 214 215 226 231 234 240 244 245 243 242 239 238 242 243 244 242 238 236 237 236 232 232 234 235 238 240 244 244 237 232 231 233 243 246 242 237 235 234 228 220 217 218 216 221 221 216 228 237 234 240 247 253 237 211 205 197 196 174 133 117 112 115
169 168 164 162 164 167 166 163 163 168 171 173 171 169 177 184 196 202 203 214 234 240 234 223 222 228 230 232 233 235 239 238 235 232 233 239 240 237 235 236 237 237 237 235 233 233 235 238 239 241 243 239 236 233 233 239 243 241 237 230 223 218 211 209 213 215 217 219 218 227 234 236 244 249 247 233 220 209 201 204 196 168 153 144 137
158 162 165 163 162 161 159 161 164 170 177 179 176 181 197 201 204 209 202 198 218 242 241 235 235 237 237 240 235 233 238 236 232 231 232 235 236 233 230 231 234 235 236 235 235 235 236 237 237 237 239 238 237 234 233 236 239 238 232 225 220 215 211 209 213 215 213 215 216 224 234 239 244 245 238 232 227 211 202 206 204 193 182 173 164
156 162 166 165 165 164 163 164 165 175 182 186 189 190 198 207 210 212 207 198 205 227 237 236 238 239 241 245 241 238 241 240 237 236 235 234 233 234 234 234 236 238 238 238 237 237 239 239 237 236 236 238 238 235 234 235 236 235 227 221 219 217 216 213 212 212 210 214 217 222 234 237 237 237 233 232 230 216 206 208 208 197 188 187 181
163 166 169 171 174 172 171 169 169 185 190 187 194 199 204 210 211 211 209 207 210 222 235 234 232 235 239 244 245 246 248 249 248 244 242 238 237 239 240 241 243 245 246 244 242 240 241 241 240 239 238 238 240 238 237 237 236 234 229 222 215 214 219 218 214 213 213 217 220 223 232 236 233 232 233 229 224 217 208 210 215 202 188 190 188
172 173 176 178 180 181 182 178 174 191 201 190 192 203 211 205 192 191 192 196 206 222 240 243 241 241 243 247 250 251 251 255 257 254 252 248 244 245 246 249 250 253 255 253 250 246 243 241 240 240 240 239 241 240 237 237 236 232 228 226 222 219 220 216 214 214 214 217 223 225 227 232 232 230 230 224 216 214 210 212 218 208 193 193 196
180 181 187 187 188 188 187 187 187 196 204 198 192 200 206 185 165 175 182 196 216 232 250 261 266 266 261 258 257 257 256 257 259 259 261 260 258 259 259 260 260 258 259 257 254 250 247 245 244 242 241 240 240 241 238 235 235 234 232 230 226 223 217 212 214 213 207 209 218 223 224 224 225 225 226 222 214 211 211 213 214 208 199 200 205
184 190 192 188 190 191 192 200 204 202 201 197 188 186 183 161 161 182 195 210 224 236 256 267 270 271 267 265 266 265 264 263 264 264 260 261 273 282 274 267 264 259 256 255 255 253 250 247 246 245 242 241 239 240 240 236 235 236 235 231 225 220 212 209 217 220 211 206 208 213 219 221 220 220 220 220 217 211 211 213 213 210 204 204 211
180 184 184 187 195 200 201 194 179 171 165 151 130 151 174 164 185 204 203 206 213 227 255 268 265 266 265 267 268 268 269 268 266 267 265 264 276 280 272 266 266 263 256 255 255 253 251 247 246 246 244 241 238 238 238 237 237 236 234 229 221 214 208 205 210 218 219 211 206 207 210 213 216 217 214 214 215 212 214 215 212 211 206 205 212
166 167 177 196 196 187 177 154 130 124 132 128 125 253 323 313 227 232 219 217 221 228 242 255 260 266 267 270 272 273 276 274 269 274 280 278 276 276 276 277 276 271 264 259 256 254 252 249 247 246 244 241 236 235 235 233 234 234 233 226 216 209 208 206 203 211 218 215 213 213 211 210 213 212 208 209 211 211 215 216 210 208 205 204 209
171 177 182 180 165 153 144 131 113 105 119 228 274 263 288 286 273 271 256 242 245 240 240 247 257 265 269 272 275 278 283 285 286 291 291 285 279 277 278 279 276 271 267 265 264 262 260 256 251 247 245 242 236 232 231 228 228 231 229 222 214 211 214 216 212 213 218 216 215 217 213 211 213 213 208 206 207 210 213 211 209 207 201 200 204